Powrót do katalogu

NINGXIA-1 4

AktywnyNaukaLEO
NORAD 44782·PAYLOAD·🇨🇳 China

Wystrzelony Nov 13, 2019 z Taiyuan Satellite Launch Center

Loading…

Następne Przeloty (najbliższe 24 godziny)

TLE

ŚwieżeSource: Space-Track

Epoka: Sep 14, 2026, 15:14 UTC

1 44782U 19076D   26257.63473141 -.00000129  00000-0  16674-6 0  9992
2 44782  45.0076 140.1024 0012600 188.3393 171.7233 14.01996884350377

Śledź NINGXIA-1 4 w czasie rzeczywistym z AllMySat

Download on the App Store